Regional Weather Roundup
Issued by NWS

Home | Current Version | Previous Version | Graphics & Text | Print | Product List | Glossary On
Versions: 1 2 3 4 5 6 7 8 9 10 11 12 13 14 15 16 17 18 19 20 21 22 23 24 25 26 27 28 29 30 31 32 33 34 35 36 37 38 39 40 41 42 43 44 45 46 47 48 49 50
000
ASUS45 KBOU 030007
RWRCO

WEATHER ROUNDUP FOR COLORADO
NATIONAL WEATHER SERVICE DENVER/BOULDER CO
600 PM MDT SAT MAY 02 2015

NOTE: "FAIR" INDICATES FEW OR NO CLOUDS BELOW 12000 FEET WITH NO
SIGNIFICANT WEATHER AND/OR OBSTRUCTIONS TO VISIBILITY.

COZ001>005-013-030-031-030100-
...NORTHWEST COLORADO...

CITY           SKY/WX    TMP DP  RH WIND       PRES   REMARKS
CRAIG          LGT RAIN  58  40  51 W12G24    30.04S
HAYDEN         CLOUDY    55  37  50 CALM      30.06R
MEEKER         CLOUDY    61  32  33 VRB7      30.05R
MOUNT WERNER   NOT AVBL
STEAMBOAT SPGS CLOUDY    54  36  49 NW13      30.07F
WALDEN         CLOUDY    45  34  65 SW7       30.15F
$$

COZ006>008-011-030100-
...WEST CENTRAL VALLEYS...

CITY           SKY/WX    TMP DP  RH WIND       PRES   REMARKS
GRAND JUNCTION PTSUNNY   78  26  14 W9        29.85S
MONTROSE       PTSUNNY   75  26  16 E6        29.94F
EAGLE          MOSUNNY   63  34  34 NE6       30.04F
RIFLE          CLOUDY    72  31  22 NW5       29.92S
DELTA          PTSUNNY   79  23  12 NW12      29.89S
NUCLA          PTSUNNY   75  19  12 SW14      29.98S
$$

COZ017>023-064>068-030100-
...SOUTHWEST COLORADO...

CITY           SKY/WX    TMP DP  RH WIND       PRES   REMARKS
DURANGO        CLOUDY    68  26  20 SW13G22   30.02R
CORTEZ         SUNNY     75  19  12 W13       29.96F
PAGOSA SPRINGS CLOUDY    64  25  22 E5        30.09S
TELLURIDE      PTSUNNY   57  24  28 CALM      30.18S
WOLF CREEK PAS NOT AVBL
$$

COZ009-010-012-014-032>034-037-058>063-030100-
...CENTRAL COLORADO...

CITY           SKY/WX    TMP DP  RH WIND       PRES   REMARKS
ASPEN          PTSUNNY   57  33  40 SW7       30.10R
BUENA VISTA    NOT AVBL
COPPER MTN     CLOUDY    41  27  56 W8G17     30.32R
BERTHOUD PASS  FAIR      32  27  80 W23G36    30.31F WCI  19
COTTONWOOD PAS CLOUDY    54  28  37 CALM      30.21R
GUNNISON       PTSUNNY   63  28  27 SW6       30.11S
KREMMLING      CLOUDY    57  30  35 W7        30.09R
LEADVILLE      PTSUNNY   50  26  39 NW17      30.21R
MONARCH PASS   CLOUDY    37  28  70 SW22G28   30.41S THUNDER
SALIDA         PTSUNNY   62  30  29 S13G25    30.14R
SUNLIGHT       CLOUDY    45  32  61 N6        30.27S
WILKERSON PASS MOSUNNY   46  23  39 W8G17     30.30R
$$

COZ069>075-030100-
...SAN LUIS VALLEY/SANGRE DE CRISTO MOUNTAINS...

CITY           SKY/WX    TMP DP  RH WIND       PRES   REMARKS
ALAMOSA        LGT RAIN  51  41  68 S10       30.16R
LA VETA PASS   CLOUDY    43  34  70 MISG      30.24F
SAGUACHE       CLOUDY    57  36  44 S17       30.15S
$$

COZ035-036-038>040-030100-
...NORTHERN COLORADO FRONT RANGE...

CITY           SKY/WX    TMP DP  RH WIND       PRES   REMARKS
DENVER INTL AP CLOUDY    68  38  33 VRB5      29.93R
DMNS CITY PARK   N/A     70  34  26 NE2       29.93R
AURORA         PTSUNNY   69  37  30 N5        29.96R
FRONT RANGE AP PTSUNNY   72  39  30 SE10G17   29.95R
ERIE MUNI ARPT CLOUDY    67  34  30 NW9       29.92R
BOULDER MUN AP CLOUDY    64  36  34 N12       29.92R
CENTENNIAL     CLOUDY    66  38  35 SE12      29.96R
BROOMFIELD     NOT AVBL
FORT COLLINS   CLOUDY    63  41  45 NW15      29.97R
LONGMONT       CLOUDY    68  36  30 N12G18    29.95R
$$

COZ041-046-047-076>085-087-088-030100-
...PIKES PEAK/PALMER DIVIDE AND SOUTHERN FOOTHILLS...

CITY           SKY/WX    TMP DP  RH WIND       PRES   REMARKS
COLO. SPRINGS  CLOUDY    64  37  36 E12       29.99R
A. F. ACADEMY  PTSUNNY   66  33  30 E7        30.00R
ELLICOTT       CLOUDY   N/A N/A N/A SE16      29.99F
FALCON         CLOUDY    62  31  31 E8        30.04R
FORT CARSON    MOSUNNY   65  40  40 E13       29.96R
LIMON          CLOUDY    66  34  30 SW16      29.97R
MONUMENT HILL  CLOUDY    61  32  33 SE6       30.03R
TRINIDAD       CLOUDY    70  32  24 W21       29.98R
$$

COZ042>045-048>051-090-091-030100-
...NORTHEAST COLORADO...

CITY           SKY/WX    TMP DP  RH WIND       PRES   REMARKS
GREELEY ARPT   CLOUDY    64  39  39 NW29G38   29.92R
AKRON          CLOUDY    72  40  31 N17G23    29.88R
BURLINGTON     CLOUDY    76  43  30 W5        29.85S
WRAY           CLOUDY    79  36  21 W6        29.82S
STERLING       LGT RAIN  63  48  59 SW10      29.82F
HOLYOKE        NOT AVBL
FORT MORGAN    CLOUDY    64 -39   1 NE14      29.87S
$$

COZ086-089-092>099-030100-
...SOUTHEAST COLORADO...

CITY           SKY/WX    TMP DP  RH WIND       PRES   REMARKS
PUEBLO         CLOUDY    72  36  26 SE14      29.92F
LA JUNTA       LGT RAIN  72  38  29 MISG      29.88R VSB 1/4
LAMAR          PTSUNNY   80  46  30 SE10      29.80R
SPRINGFIELD      N/A     73  36  25 S14       29.88S
$$


USA.gov is the U.S. government's official web portal to all federal, state and local government web resources and services.